User: anonymous   Login
Location: Bushey
(51.6333°N, 0.3667°W)
Time: 00:40:20
(UTC+00:00)
Language:

Cosmos 1703 Rocket - Orbit

View from above orbital plane
View from above orbital plane
View from above satellite
View from above satellite

Ground track
Ground track

The orbit data is extracted from the following two-line orbital elements,

1 16263U 85108B   21138.68369442  .00000079  00000-0  67399-5 0  9992
2 16263  82.5060 211.2648 0018936 316.3792 157.1892 14.83140514916553
Epoch (UTC): 18 May 2021 16:24:31
Eccentricity: 0.0018936
inclination: 82.5060°
perigee height: 606 km
apogee height: 632 km
right ascension of ascending node: 211.2648°
argument of perigee: 316.3792°
revolutions per day: 14.83140514
mean anomaly at epoch: 157.1892°
orbit number at epoch: 91655

The dashed part of the orbit path shows where the satellite is in the earth's shadow,  

DLR